Altoona, PA

7:39 AM EDT on October 16, 2019 (GMT -0400)
Altoona-Blair County

Weather History for KAOO - August, 2019

Change the Weather History Date:

Friday, August 30, 2019

  Actual Average Record
Temperature  
Mean Temperature 70 °F 67 °F  
Max Temperature 81 °F 78 °F 95 °F (1953)
Min Temperature 58 °F 56 °F 38 °F (1986)
Degree Days  
Heating Degree Days 0 1  
Month to date heating degree days 9 22  
Since 1 June heating degree days 47 90  
Since 1 July heating degree days 9 32  
Cooling Degree Days 5 3  
Month to date cooling degree days 179 151  
Year to date cooling degree days 641 478  
Since 1 June cooling degree days 572 445  
Growing Degree Days 19 (Base 50)    
Moisture  
Dew Point 58 °F    
Average Humidity 69    
Maximum Humidity 93    
Minimum Humidity 45    
Precipitation  
Precipitation 0.00 in 0.11 in 1.08 in (1981)
Month to date precipitation 2.79 2.91  
Year to date precipitation 29.69 23.83  
Sea Level Pressure  
Sea Level Pressure 30.07 in    
Wind  
Wind Speed 7 mph (SW)    
Max Wind Speed 16 mph    
Max Gust Speed 21 mph    
Visibility 10 miles    
Events      
T = Trace of Precipitation, MM = Missing Value Source: NWS Daily Summary

Daily Weather History Graph

Daily Weather History Graph

Search for Another Location

Airport or City:

Astronomy

Aug. 30, 2019 Rise Set
Actual Time 6:38 AM EDT 7:48 PM EDT
Civil Twilight 6:10 AM EDT 8:16 PM EDT
Nautical Twilight 5:36 AM EDT 8:49 PM EDT
Astronomical Twilight 5:01 AM EDT 9:24 PM EDT
Moon 6:36 AM EDT (8/30) 8:23 PM EDT (8/30)
Length of Visible Light 14h 06m
Length of Day
13h 09m
New Moon, 0% of the Moon is Illuminated
Aug 30
New Moon
Sep 5
First Quarter
Sep 14
Full
Sep 21
Last Quarter
Sep 28
New

Hourly Weather History & Observations

Time (EDT) Temp. Heat Index Dew Point Humidity Pressure Visibility Wind Dir Wind Speed Gust Speed Precip Events Conditions
12:53 AM 61.0 °F - 53.1 °F 75% 30.05 in 10.0 mi SSW 9.2 mph - N/A   Clear
1:53 AM 59.0 °F - 52.0 °F 78% 30.05 in 10.0 mi SSW 6.9 mph - N/A   Clear
2:53 AM 62.1 °F - 52.0 °F 70% 30.04 in 10.0 mi South 5.8 mph - N/A   Clear
3:53 AM 60.1 °F - 53.1 °F 78% 30.03 in 10.0 mi SSW 8.1 mph - N/A   Clear
4:53 AM 60.1 °F - 53.1 °F 78% 30.02 in 10.0 mi South 5.8 mph - N/A   Clear
5:53 AM 60.1 °F - 53.1 °F 78% 30.03 in 10.0 mi SSW 5.8 mph - N/A   Clear
6:53 AM 57.9 °F - 53.1 °F 84% 30.04 in 10.0 mi SSW 5.8 mph - N/A   Clear
7:53 AM 66.9 °F - 55.9 °F 68% 30.04 in 10.0 mi SW 8.1 mph - N/A   Overcast
8:53 AM 68.0 °F - 57.0 °F 68% 30.06 in 10.0 mi SW 11.5 mph - N/A   Mostly Cloudy
9:53 AM 73.0 °F - 59.0 °F 61% 30.07 in 10.0 mi SW 10.4 mph - N/A   Overcast
10:53 AM 73.0 °F - 59.0 °F 61% 30.07 in 10.0 mi SW 10.4 mph - N/A   Overcast
11:53 AM 75.0 °F - 62.1 °F 64% 30.07 in 10.0 mi WSW 9.2 mph - N/A   Mostly Cloudy
12:53 PM 75.9 °F - 62.1 °F 62% 30.06 in 10.0 mi WSW 10.4 mph - N/A   Mostly Cloudy
1:53 PM 78.1 °F - 64.0 °F 62% 30.06 in 10.0 mi North - - N/A   Mostly Cloudy
2:53 PM 80.1 °F 81.1 °F 61.0 °F 52% 30.05 in 10.0 mi WNW 10.4 mph 18.4 mph N/A   Partly Cloudy
3:53 PM 81.0 °F 81.6 °F 60.1 °F 49% 30.06 in 10.0 mi WNW 11.5 mph - N/A   Scattered Clouds
4:53 PM 80.1 °F 80.9 °F 60.1 °F 50% 30.06 in 10.0 mi NW 6.9 mph - N/A   Partly Cloudy
5:53 PM 80.1 °F 80.6 °F 57.9 °F 47% 30.06 in 10.0 mi WNW 10.4 mph - N/A   Clear
6:53 PM 77.0 °F - 61.0 °F 58% 30.07 in 10.0 mi West 5.8 mph - N/A   Clear
7:53 PM 73.0 °F - 59.0 °F 61% 30.09 in 10.0 mi West 4.6 mph - N/A   Clear
8:53 PM 69.1 °F - 60.1 °F 73% 30.11 in 10.0 mi Calm Calm - N/A   Clear
9:53 PM 64.9 °F - 61.0 °F 87% 30.13 in 10.0 mi Calm Calm - N/A   Clear
10:53 PM 64.9 °F - 60.1 °F 84% 30.14 in 10.0 mi Calm Calm - N/A   Partly Cloudy
11:53 PM 63.0 °F - 60.1 °F 90% 30.15 in 10.0 mi Calm Calm - N/A   Mostly Cloudy